Simultaneous Nadir Overpasses (SNOs) Predictions

Prediction of SNOs between LANDSAT-8 and METOP-B Satellite Orbit:

Table of predicted SNOs for the next 14.0 days since TLE Epoch: 6/21/2014
Index Date (LANDSAT-8) Time (LANDSAT-8) Lat,Lon (LANDSAT-8) SZA (LANDSAT-8 ) Date (METOP-B) Time (METOP-B) Lat,Lon (METOP-B) SZA (METOP-B ) Distance(km) Time Diff (sec)
1 06/21/2014 05:27:31 -81.13, -41.77 120.16 06/21/2014 05:27:03 -81.14, -41.89 120.18 2.17 28
2 06/21/2014 06:16:56 81.16, 126.30 59.91 06/21/2014 06:17:42 81.17, 126.38 59.94 1.42 46
3 06/24/2014 01:01:46 -81.14, 24.81 120.13 06/24/2014 01:01:23 -81.15, 24.78 120.14 0.62 23
4 06/24/2014 01:51:11 81.17,-167.14 59.94 06/24/2014 01:52:02 81.18,-166.98 59.98 2.87 51
5 06/26/2014 20:36:00 -81.15, 91.35 120.05 06/26/2014 20:35:42 -81.15, 91.42 120.05 1.35 18
6
